Location: Goheenville
(40.9070°N, 79.3720°W)
Time: 05:06:44
(UTC-04:00)

Meteor 2-10 Rocket - Visible Passes

Search period start: 20 April 2014 00:00
Search period end: 30 April 2014 00:00
Orbit: 734 x 886 km, 81.2° (Epoch: 18 April)

Date Brightness Start Highest point End Pass type
(mag) Time Alt. Az. Time Alt. Az. Time Alt. Az.
20 Apr 5.8 01:38:28 19° NW 01:38:28 19° NW 01:40:56 10° NNW visible
20 Apr 5.4 23:33:12 22° NE 23:33:12 22° NE 23:35:24 10° NNE visible
21 Apr 5.5 01:14:20 24° NW 01:14:20 24° NW 01:17:16 10° NNW visible
21 Apr 5.5 23:09:04 18° NE 23:09:04 18° NE 23:10:55 10° NE visible
22 Apr 5.2 00:50:12 31° NNW 00:50:12 31° NNW 00:53:27 10° N visible
22 Apr 5.7 22:44:54 14° ENE 22:44:54 14° ENE 22:46:12 10° NE visible
23 Apr 4.9 00:26:02 38° NNW 00:26:02 38° NNW 00:29:31 10° N visible
23 Apr 5.9 22:20:43 11° ENE 22:20:43 11° ENE 22:20:59 10° ENE visible
24 Apr 4.6 00:01:51 44° N 00:01:51 44° N 00:05:29 10° N visible
24 Apr 4.4 23:37:38 46° NNE 23:37:38 46° NNE 23:41:23 10° NNE visible
25 Apr 6.0 01:18:45 14° WNW 01:18:45 14° WNW 01:21:22 10° NW visible
25 Apr 4.4 23:13:23 42° NE 23:13:23 42° NE 23:17:10 10° NNE visible
26 Apr 5.7 00:54:31 19° WNW 00:54:31 19° WNW 00:58:06 10° NNW visible
26 Apr 4.5 22:49:07 34° ENE 22:49:07 34° ENE 22:52:52 10° NNE visible
27 Apr 5.3 00:30:14 26° WNW 00:30:14 26° WNW 00:34:31 10° NNW visible
27 Apr 4.8 22:24:48 26° ENE 22:24:48 26° ENE 22:28:25 10° NNE visible
28 Apr 4.8 00:05:55 36° WNW 00:05:55 36° WNW 00:10:44 10° N visible
28 Apr 5.1 22:00:27 20° E 22:00:27 20° E 22:03:46 10° NE visible
28 Apr 4.2 23:41:34 49° W 23:41:40 49° WNW 23:46:50 10° N visible
29 Apr 5.4 21:36:04 14° E 21:36:05 14° E 21:38:42 10° NE visible
29 Apr 3.7 23:17:10 67° WSW 23:17:32 70° W 23:22:50 10° N visible
